METEOR 2-20 DEB, 45524

Orbit data source: Space-Track

METEOR 2-20 DEB, 45524 is space debris in LEO originally from a launch on Fri, 28 Sep 1990 UTC launched from the Plesetsk Missile And Space Complex (PKMTR). Debris objects in space refer to the collection of defunct objects orbiting the Earth. Examples of debris include non-operational satellites, rocket bodies, and fragments generated from explosions, collisions, or faulty payload assembly.

Loading next visibility...
Identifier
45524, 1990-086F
Orbit
LEO
Country
Flag of CISCIS
Related business
Manufacturer
Unknown
Mission
Spacecraft
Bus & Motor
Unknown
Mass
Unknown
Launch date (UTC)
1990-09-28 (36 years ago)
Launch vehicle
Unknown
Launch site
Plesetsk Missile And Space Complex (PKMTR)
Object type
Payload
Rocket body
Debris
Shape & HBR
Unknown shape, 0.1 m
Radar Cross Section
Small (<0.1 m²)

Expand to show TLE details & history
Last TLE update: 6 days ago

TLE from 6 days ago
0 METEOR 2-20 DEB
1 45524U 90086F   26167.25500111  .00002027  00000-0  13720-2 0  9996
2 45524  82.5251 163.4143 0016619 193.8599 166.2116 13.99783228625192
Epoch: 2026-06-16T06:07Z
TLE epoch observation values (Epoch: 2026-06-16T06:07:12.095Z)
Latitude
-0.00005°
Longitude
167.08423°
Altitude
909.211 km
Speed
7.391 km/s
True Right ascension
10h 53m 39s
True Declination
0° 00' 00"
Sunlit
Object was in daylight at epoch
Visualization orbit readout
Latitude
Unknown
Longitude
Unknown
Altitude
Unknown
Speed
Unknown
Apparent Right ascension
Unknown
Apparent Declination
Unknown
Sunlit
N/A
Visualization observer readout
Local Sidereal Time
21:28:50
Azimuth
Unknown
Elevation
Unknown
Doppler factor
Unknown
Orbital elements
Apogee altitude
903.759 km
Perigee altitude
879.595 km
Semi-major axis
7,269.814 km
Eccentricity
0.00166
Inclination
82.5251°
RAAN
163.4143°
Arg. of periapsis
193.8599°
True anomaly
166.2569°
Mean anomaly
166.2116°
Eccentric anomaly
166.23426°
Mean motion
3.50153 °/min
Orbital period
102.81 mins
BSTAR
0.001372
Loading maneuver chart data...
Computing Atmospheric mass density...
Loading historical data...
Loading historical data...
Loading historical data...
Loading historical data...
Loading historical data...
Loading historical data...
Loading historical data...

Documentation

Showing up to 5 results
|